Lancaster, OH

1:59 AM EDT on April 24, 2018 (GMT -0400)
Fairfield County

Weather History for KLHQ - December, 2012

Change the Weather History Date:

Friday, December 21, 2012

  Actual Average Record
Temperature  
Mean Temperature 32 °F -  
Max Temperature 35 °F 39 °F 66 °F (2013)
Min Temperature 28 °F 20 °F -8 °F (1963)
Degree Days  
Heating Degree Days 34    
Moisture  
Dew Point 26 °F    
Average Humidity 82    
Maximum Humidity 86    
Minimum Humidity 65    
Precipitation  
Precipitation 0.01 in - - ()
Sea Level Pressure  
Sea Level Pressure 29.63 in    
Wind  
Wind Speed 22 mph (West)    
Max Wind Speed 30 mph    
Max Gust Speed 44 mph    
Visibility 4 miles    
Events Snow    
Averages and records for this station are not official NWS values.
T = Trace of Precipitation, MM = Missing Value Source: NWS Daily Summary

Daily Weather History Graph

Daily Weather History Graph

Search for Another Location

Airport or City:

Astronomy

Dec. 21, 2012 Rise Set
Actual Time 7:48 AM EST 5:09 PM EST
Civil Twilight 7:18 AM EST 5:40 PM EST
Nautical Twilight 6:44 AM EST 6:14 PM EST
Astronomical Twilight 6:11 AM EST 6:46 PM EST
Moon 12:55 PM EST (12/21) 1:34 AM EST (12/21)
Length of Visible Light 10h 22m
Length of Day
9h 21m
Waxing Gibbous, 64% of the Moon is Illuminated
Dec 21
Waxing Gibbous
Dec 28
Full
Jan 4
Last Quarter
Jan 11
New
Jan 18
First Quarter

Hourly Weather History & Observations

Time (EST) Temp. Windchill Dew Point Humidity Pressure Visibility Wind Dir Wind Speed Gust Speed Precip Events Conditions
12:06 AM 33.8 °F 21.9 °F 26.6 °F 75% 29.46 in 6.0 mi WSW 21.9 mph 36.8 mph 0.00 in Snow Light Snow
12:19 AM 35.6 °F 22.5 °F 24.8 °F 65% 29.46 in 9.0 mi WSW 29.9 mph 43.7 mph 0.00 in   Overcast
12:26 AM 33.8 °F 20.3 °F 24.8 °F 70% 29.46 in 10.0 mi WSW 28.8 mph 41.4 mph 0.00 in   Overcast
12:53 AM 34.0 °F 21.0 °F 25.0 °F 70% 29.47 in 10.0 mi SW 26.5 mph 36.8 mph 0.00 in   Overcast
1:06 AM 33.8 °F 22.2 °F 24.8 °F 70% 29.46 in 10.0 mi WSW 20.7 mph 39.1 mph N/A   Overcast
1:31 AM 33.8 °F 21.0 °F 24.8 °F 70% 29.46 in 9.0 mi WSW 25.3 mph 40.3 mph 0.00 in Snow Light Snow
1:53 AM 33.1 °F 20.6 °F 25.0 °F 72% 29.48 in 6.0 mi WSW 23.0 mph 34.5 mph 0.00 in Snow Light Snow
2:14 AM 32.0 °F 20.1 °F 24.8 °F 75% 29.47 in 3.0 mi WSW 19.6 mph 28.8 mph 0.00 in Snow Light Snow
2:53 AM 32.0 °F 20.1 °F 25.0 °F 75% 29.49 in 8.0 mi WSW 19.6 mph 29.9 mph 0.00 in Snow Light Snow
3:53 AM 32.0 °F 20.1 °F 25.0 °F 75% 29.48 in 10.0 mi WSW 19.6 mph 36.8 mph 0.00 in   Overcast
4:53 AM 30.9 °F 17.5 °F 24.1 °F 76% 29.48 in 8.0 mi WSW 24.2 mph 34.5 mph 0.00 in Snow Light Snow
5:22 AM 30.2 °F 17.1 °F 24.8 °F 80% 29.47 in 2.0 mi WSW 21.9 mph 33.4 mph 0.00 in Snow Light Snow
5:31 AM 30.2 °F 17.4 °F 24.8 °F 80% 29.47 in 1.5 mi WSW 20.7 mph 35.7 mph 0.00 in Snow Light Snow
5:53 AM 30.0 °F 16.3 °F 24.1 °F 79% 29.48 in 2.0 mi WSW 24.2 mph 35.7 mph 0.00 in Snow Light Snow
6:00 AM 30.2 °F 17.4 °F 24.8 °F 80% 29.47 in 2.5 mi WSW 20.7 mph 32.2 mph 0.00 in Snow Light Snow
6:09 AM 30.2 °F 17.8 °F 24.8 °F 80% 29.47 in 5.0 mi WSW 19.6 mph 34.5 mph 0.00 in Snow Light Snow
6:53 AM 28.9 °F 14.5 °F 24.1 °F 82% 29.48 in 1.2 mi WSW 25.3 mph 36.8 mph 0.00 in Snow Light Snow
7:23 AM 28.4 °F 14.1 °F 24.8 °F 86% 29.48 in 1.0 mi WSW 24.2 mph 33.4 mph 0.00 in Snow Light Snow
7:45 AM 28.4 °F 14.4 °F 24.8 °F 86% 29.48 in 1.5 mi WSW 23.0 mph 35.7 mph 0.00 in Snow Light Snow
7:53 AM 28.9 °F 15.4 °F 24.1 °F 82% 29.49 in 1.2 mi West 21.9 mph 32.2 mph 0.00 in Snow Light Snow
8:00 AM 28.4 °F 14.4 °F 24.8 °F 86% 29.48 in 1.5 mi West 23.0 mph 33.4 mph 0.00 in Snow Light Snow
8:12 AM 28.4 °F 15.1 °F 24.8 °F 86% 29.49 in 0.8 mi West 20.7 mph 32.2 mph 0.00 in Snow Light Snow
8:22 AM 28.4 °F 14.1 °F 24.8 °F 86% 29.49 in 1.0 mi West 24.2 mph 34.5 mph 0.00 in Snow Light Snow
8:49 AM 28.4 °F 14.7 °F 24.8 °F 86% 29.50 in 0.8 mi West 21.9 mph 34.5 mph 0.00 in Snow Light Snow
8:53 AM 28.9 °F 15.4 °F 24.1 °F 82% 29.52 in 1.0 mi West 21.9 mph 34.5 mph 0.00 in Snow Light Snow
9:01 AM 28.4 °F 14.7 °F 24.8 °F 86% 29.50 in 1.5 mi West 21.9 mph 34.5 mph 0.00 in Snow Light Snow
9:10 AM 28.4 °F 13.8 °F 24.8 °F 86% 29.51 in 0.8 mi West 25.3 mph 33.4 mph 0.00 in Snow Light Snow
9:53 AM 30.0 °F 16.9 °F 25.0 °F 82% 29.54 in 0.8 mi West 21.9 mph 31.1 mph 0.00 in Snow Light Snow
9:59 AM 30.2 °F 17.1 °F 24.8 °F 80% 29.52 in 1.2 mi West 21.9 mph 32.2 mph 0.00 in Snow Light Snow
10:23 AM 30.2 °F 16.8 °F 24.8 °F 80% 29.54 in 2.5 mi West 23.0 mph 34.5 mph 0.00 in Snow Light Snow
10:31 AM 30.2 °F 16.8 °F 24.8 °F 80% 29.55 in 4.0 mi West 23.0 mph 34.5 mph 0.00 in Snow Light Snow
10:48 AM 30.2 °F 17.4 °F 24.8 °F 80% 29.55 in 2.5 mi West 20.7 mph 28.8 mph 0.00 in Snow Light Snow
10:49 AM 30.0 °F 17.5 °F 25.0 °F 82% 29.57 in 2.5 mi West 19.6 mph 29.9 mph 0.00 in Snow Light Snow
10:52 AM 30.2 °F 17.4 °F 24.8 °F 80% 29.55 in 1.8 mi West 20.7 mph 38.0 mph 0.00 in Snow Light Snow
11:15 AM 30.2 °F 17.4 °F 26.6 °F 86% 29.56 in 2.5 mi West 20.7 mph 31.1 mph 0.00 in Snow Light Snow
11:34 AM 30.2 °F 16.5 °F 26.6 °F 86% 29.56 in 2.0 mi West 24.2 mph 33.4 mph 0.00 in Snow Light Snow
11:53 AM 30.9 °F 17.2 °F 26.1 °F 82% 29.59 in 2.0 mi West 25.3 mph 36.8 mph 0.00 in Snow Light Snow
12:06 PM 30.2 °F 17.1 °F 26.6 °F 86% 29.57 in 1.5 mi West 21.9 mph 32.2 mph 0.00 in Snow Light Snow
12:40 PM 30.2 °F 18.1 °F 24.8 °F 80% 29.57 in 1.0 mi West 18.4 mph 33.4 mph 0.00 in Snow Light Snow
12:51 PM 30.2 °F 17.4 °F 26.6 °F 86% 29.58 in 0.8 mi West 20.7 mph 31.1 mph 0.00 in Snow Light Snow
12:53 PM 30.0 °F 17.2 °F 26.1 °F 85% 29.60 in 0.8 mi West 20.7 mph 31.1 mph 0.00 in Snow Light Snow
1:21 PM 30.2 °F 18.1 °F 26.6 °F 86% 29.58 in 1.0 mi West 18.4 mph 25.3 mph 0.00 in Snow Light Snow
1:40 PM 30.2 °F 18.1 °F 26.6 °F 86% 29.58 in 2.0 mi West 18.4 mph 28.8 mph 0.01 in Snow Light Snow
1:53 PM 32.0 °F 19.2 °F 26.1 °F 79% 29.61 in 1.5 mi West 23.0 mph 39.1 mph 0.01 in Snow Light Snow
2:53 PM 32.0 °F 19.5 °F 26.1 °F 79% 29.63 in 1.2 mi West 21.9 mph 32.2 mph 0.00 in Snow Light Snow
2:58 PM 32.0 °F 19.5 °F 26.6 °F 80% 29.62 in 0.8 mi West 21.9 mph 33.4 mph 0.00 in Snow Light Snow
3:23 PM 30.2 °F 17.8 °F 26.6 °F 86% 29.63 in 1.2 mi WNW 19.6 mph 34.5 mph 0.00 in Snow Light Snow
3:49 PM 30.2 °F 16.5 °F 26.6 °F 86% 29.65 in 2.0 mi West 24.2 mph 36.8 mph 0.00 in Snow Light Snow
3:53 PM 30.9 °F 17.5 °F 26.1 °F 82% 29.68 in 2.0 mi WNW 24.2 mph 36.8 mph 0.00 in Snow Light Snow
4:02 PM 30.2 °F 16.5 °F 26.6 °F 86% 29.66 in 2.5 mi West 24.2 mph 34.5 mph 0.00 in Snow Light Snow
4:22 PM 30.2 °F 17.8 °F 26.6 °F 86% 29.68 in 2.0 mi West 19.6 mph 35.7 mph 0.00 in Snow Light Snow
4:31 PM 30.2 °F 17.1 °F 26.6 °F 86% 29.69 in 1.8 mi West 21.9 mph 31.1 mph 0.00 in Snow Light Snow
4:53 PM 30.0 °F 17.2 °F 26.1 °F 85% 29.73 in 1.2 mi West 20.7 mph 35.7 mph 0.00 in Snow Light Snow
5:18 PM 30.2 °F 18.1 °F 26.6 °F 86% 29.72 in 1.2 mi West 18.4 mph 29.9 mph 0.00 in Snow Light Snow
5:42 PM 30.2 °F 17.8 °F 26.6 °F 86% 29.73 in 2.0 mi West 19.6 mph 29.9 mph 0.00 in Snow Light Snow
5:49 PM 30.2 °F 18.5 °F 26.6 °F 86% 29.74 in 2.5 mi West 17.3 mph 29.9 mph 0.00 in Snow Light Snow
5:53 PM 30.0 °F 18.3 °F 26.1 °F 85% 29.77 in 2.5 mi West 17.3 mph 28.8 mph 0.00 in Snow Light Snow
6:05 PM 30.2 °F 18.5 °F 26.6 °F 86% 29.75 in 1.8 mi WNW 17.3 mph 28.8 mph 0.00 in Snow Light Snow
6:25 PM 30.2 °F 18.1 °F 26.6 °F 86% 29.76 in 2.0 mi West 18.4 mph 28.8 mph 0.00 in Snow Light Snow
6:28 PM 30.2 °F 18.5 °F 26.6 °F 86% 29.76 in 2.5 mi West 17.3 mph 28.8 mph 0.00 in Snow Light Snow
6:40 PM 30.2 °F 17.8 °F 26.6 °F 86% 29.77 in 3.0 mi West 19.6 mph 29.9 mph 0.00 in Snow Light Snow
6:53 PM 30.9 °F 20.2 °F 27.0 °F 85% 29.80 in 2.5 mi West 15.0 mph 29.9 mph 0.00 in Snow Light Snow
7:03 PM 30.2 °F 18.9 °F 26.6 °F 86% 29.78 in 2.0 mi West 16.1 mph 27.6 mph 0.00 in Snow Light Snow
7:08 PM 30.2 °F 19.3 °F 26.6 °F 86% 29.78 in 2.5 mi WNW 15.0 mph 27.6 mph 0.00 in Snow Light Snow
7:14 PM 30.2 °F 18.5 °F 26.6 °F 86% 29.78 in 1.8 mi West 17.3 mph 24.2 mph 0.00 in Snow Light Snow
7:43 PM 30.2 °F 17.8 °F 26.6 °F 86% 29.79 in 1.0 mi West 19.6 mph 35.7 mph 0.00 in Snow Light Snow
7:53 PM 30.0 °F 18.3 °F 26.1 °F 85% 29.83 in 1.8 mi West 17.3 mph 33.4 mph 0.00 in Snow Light Snow
8:01 PM 30.2 °F 17.8 °F 26.6 °F 86% 29.81 in 2.0 mi West 19.6 mph 31.1 mph 0.00 in Snow Light Snow
8:09 PM 30.2 °F 18.1 °F 26.6 °F 86% 29.81 in 3.0 mi West 18.4 mph 29.9 mph 0.00 in Snow Light Snow
8:18 PM 30.2 °F 17.8 °F 26.6 °F 86% 29.81 in 3.0 mi West 19.6 mph 29.9 mph 0.00 in Snow Light Snow
8:53 PM 30.9 °F 19.4 °F 27.0 °F 85% 29.85 in 5.0 mi West 17.3 mph 27.6 mph 0.00 in Snow Light Snow
9:20 PM 32.0 °F 20.8 °F 26.6 °F 80% 29.84 in 10.0 mi WNW 17.3 mph 28.8 mph 0.00 in   Overcast
9:53 PM 32.0 °F 22.5 °F 26.1 °F 79% 29.88 in 9.0 mi WNW 12.7 mph 24.2 mph 0.00 in   Overcast
10:26 PM 32.0 °F 21.6 °F 26.6 °F 80% 29.87 in 10.0 mi WNW 15.0 mph 24.2 mph 0.00 in   Overcast
10:53 PM 32.0 °F 20.8 °F 26.1 °F 79% 29.90 in 10.0 mi WNW 17.3 mph 25.3 mph 0.00 in   Overcast
11:01 PM 32.0 °F 22.1 °F 26.6 °F 80% 29.88 in 10.0 mi WNW 13.8 mph 25.3 mph N/A   Overcast
11:11 PM 33.8 °F 23.5 °F 26.6 °F 75% 29.89 in 10.0 mi WNW 16.1 mph 26.5 mph N/A   Overcast
11:20 PM 32.0 °F 22.5 °F 26.6 °F 80% 29.89 in 10.0 mi WNW 12.7 mph 24.2 mph N/A   Overcast
11:53 PM 32.0 °F 20.8 °F 25.0 °F 75% 29.93 in 10.0 mi WNW 17.3 mph 26.5 mph 0.00 in   Overcast